CZ-3C DEB, 40867

Orbit data source: Space-Track

CZ-3C DEB, 40867 is space debris in HEO originally from a launch on Fri, 24 Feb 2012 UTC launched from the Xichang Space Center, China (XSC). Debris objects in space refer to the collection of defunct objects orbiting the Earth. Examples of debris include non-operational satellites, rocket bodies, and fragments generated from explosions, collisions, or faulty payload assembly.

Loading next visibility...
Identifier
40867, 2012-008AH
Orbit
HEO
Country
Flag of CNCN / PRC
Related business
Manufacturer
CALT
Mission
Spacecraft
Bus & Motor
Unknown
Mass
Unknown
Launch date (UTC)
2012-02-24 (14 years ago)
Launch vehicle
Unknown
Launch site
Xichang Space Center, China (XSC)
Object type
Payload
Rocket body
Debris
Shape & HBR
Unknown
Radar Cross Section
Medium (>0.1 m² and <1 m²)

Expand to show TLE details & history
Last TLE update: 10 months ago

TLE from 10 months ago
0 CZ-3C DEB
1 40867U 12008AH  24298.01940812  .00000293  00000-0  37047-2 0  9993
2 40867  21.4063 188.7513 7183143 222.3329  51.5447  2.25785042 94415
Epoch: 2024-10-24T00:27Z
TLE epoch observation values (Epoch: 2024-10-24T00:27:56.861Z)
Latitude
0.0002°
Longitude
148.95742°
Altitude
19,000.136 km
Speed
3.895 km/s
True Right ascension
12h 35m 24s
True Declination
0° 00' 01"
Sunlit
Object was in daylight at epoch
Visualization orbit readout
Latitude
Unknown
Longitude
Unknown
Altitude
Unknown
Speed
Unknown
Apparent Right ascension
Unknown
Apparent Declination
Unknown
Sunlit
N/A
Visualization observer readout
Local Sidereal Time
22:16:36
Azimuth
Unknown
Elevation
Unknown
Doppler factor
Unknown
Orbital elements
Apogee altitude
35,802.848 km
Perigee altitude
536.652 km
Semi-major axis
24,547.887 km
Eccentricity
0.71831
Inclination
21.4063°
RAAN
188.7513°
Arg. of periapsis
222.3329°
True anomaly
137.73378°
Mean anomaly
51.5447°
Eccentric anomaly
92.65684°
Mean motion
0.56432 °/min
Orbital period
637.94 mins
BSTAR
0.0037047
Loading maneuver chart data...
Computing Atmospheric mass density...
Loading historical data...
Loading historical data...
Loading historical data...
Loading historical data...
Loading historical data...
Loading historical data...
Loading historical data...

Documentation

Showing up to 5 results
|